| time (UTC) | temp C | wind direction | speed KPH | gust KPH | rain 1hr cm | rain 24hr cm | rain mn cm | humidity % | barometer mb |
| 20260906113655 | 21 | 6 | 3.2 | 3.2 | 0.00 | 0.00 | 0.00 | 96 | 1047.3 |
| 20260906113155 | 21 | 0 | 1.6 | 4.8 | 0.00 | 0.00 | 0.00 | 96 | 1047.3 |
| 20260906112654 | 21 | 14 | 3.2 | 4.8 | 0.00 | 0.00 | 0.00 | 96 | 1047.2 |
| 20260906112152 | 21 | 2 | 1.6 | 4.8 | 0.00 | 0.00 | 0.00 | 96 | 1046.9 |
| 20260906111651 | 21 | 10 | 1.6 | 6.4 | 0.00 | 0.00 | 0.00 | 96 | 1047.1 |
| 20260906111145 | 21 | 7 | 1.6 | 3.2 | 0.00 | 0.00 | 0.00 | 96 | 1046.8 |
| 20260906110641 | 21 | 334 | 3.2 | 4.8 | 0.00 | 0.00 | 0.00 | 96 | 1046.7 |
| 20260906110135 | 21 | 340 | 3.2 | 4.8 | 0.00 | 0.00 | 0.00 | 96 | 1046.8 |
| 20260906105630 | 21 | 51 | 3.2 | 4.8 | 0.00 | 0.00 | 0.00 | 96 | 1046.8 |
| 20260906105126 | 21 | 1 | 1.6 | 4.8 | 0.00 | 0.00 | 0.00 | 96 | 1046.7 |
| 20260906104625 | 21 | 348 | 3.2 | 4.8 | 0.00 | 0.00 | 0.00 | 96 | 1046.7 |
| 20260906104119 | 21 | 52 | 0.0 | 3.2 | 0.00 | 0.00 | 0.00 | 96 | 1046.7 |
| 20260906103617 | 21 | 0 | 0.0 | 1.6 | 0.00 | 0.00 | 0.00 | 96 | 1046.6 |
| 20260906103113 | 21 | 2 | 3.2 | 3.2 | 0.00 | 0.00 | 0.00 | 96 | 1046.6 |
| 20260906102614 | 21 | 2 | 1.6 | 1.6 | 0.00 | 0.00 | 0.00 | 96 | 1046.4 |
| 20260906102109 | 21 | 2 | 1.6 | 3.2 | 0.00 | 0.00 | 0.00 | 96 | 1046.4 |
| 20260906101608 | 21 | 339 | 0.0 | 1.6 | 0.00 | 0.00 | 0.00 | 96 | 1046.6 |
| 20260906101109 | 21 | 339 | 0.0 | 0.0 | 0.00 | 0.00 | 0.00 | 96 | 1046.5 |
| 20260906100604 | 21 | 337 | 0.0 | 1.6 | 0.00 | 0.00 | 0.00 | 96 | 1046.4 |
| 20260906100104 | 21 | 335 | 0.0 | 1.6 | 0.00 | 0.00 | 0.00 | 96 | 1046.5 |
| 20260906095604 | 21 | 334 | 0.0 | 0.0 | 0.00 | 0.00 | 0.00 | 96 | 1046.5 |
| 20260906095100 | 21 | 334 | 1.6 | 1.6 | 0.00 | 0.00 | 0.00 | 96 | 1046.4 |
| 20260906094558 | 21 | 333 | 0.0 | 0.0 | 0.00 | 0.00 | 0.00 | 96 | 1046.1 |
| 20260906094054 | 21 | 333 | 0.0 | 0.0 | 0.00 | 0.00 | 0.00 | 95 | 1046.3 |
| 20260906093550 | 21 | 333 | 0.0 | 0.0 | 0.00 | 0.00 | 0.00 | 95 | 1046.2 |
| 20260906093045 | 21 | 333 | 0.0 | 1.6 | 0.00 | 0.00 | 0.00 | 95 | 1045.8 |
| 20260906092540 | 21 | 333 | 0.0 | 0.0 | 0.00 | 0.00 | 0.00 | 95 | 1046.3 |
| 20260906092035 | 21 | 333 | 0.0 | 1.6 | 0.00 | 0.00 | 0.00 | 95 | 1046.2 |
| 20260906091531 | 21 | 8 | 3.2 | 3.2 | 0.00 | 0.00 | 0.00 | 95 | 1046.2 |
| 20260906091028 | 21 | 32 | 0.0 | 3.2 | 0.00 | 0.00 | 0.00 | 96 | 1046.0 |
| 20260906090528 | 21 | 21 | 1.6 | 3.2 | 0.00 | 0.00 | 0.00 | 96 | 1046.1 |
| 20260906090023 | 21 | 5 | 0.0 | 3.2 | 0.00 | 0.00 | 0.00 | 96 | 1045.9 |
| 20260906085521 | 21 | 2 | 0.0 | 3.2 | 0.00 | 0.00 | 0.00 | 96 | 1045.9 |
| 20260906085021 | 21 | 60 | 1.6 | 1.6 | 0.00 | 0.00 | 0.00 | 96 | 1046.1 |
| 20260906084521 | 21 | 60 | 0.0 | 0.0 | 0.00 | 0.00 | 0.00 | 95 | 1046.2 |
| 20260906084020 | 21 | 60 | 0.0 | 0.0 | 0.00 | 0.00 | 0.00 | 95 | 1046.1 |
| 20260906083516 | 21 | 60 | 0.0 | 0.0 | 0.00 | 0.00 | 0.00 | 96 | 1046.0 |
| 20260906083016 | 21 | 60 | 0.0 | 0.0 | 0.00 | 0.00 | 0.00 | 96 | 1045.8 |
| 20260906082511 | 21 | 60 | 0.0 | 0.0 | 0.00 | 0.00 | 0.00 | 95 | 1046.1 |
| 20260906082007 | 21 | 60 | 0.0 | 0.0 | 0.00 | 0.00 | 0.00 | 96 | 1046.0 |
| 20260906081502 | 21 | 63 | 1.6 | 1.6 | 0.00 | 0.00 | 0.00 | 96 | 1046.0 |
| 20260906080958 | 21 | 178 | 0.0 | 0.0 | 0.00 | 0.00 | 0.00 | 96 | 1045.8 |
| 20260906080454 | 21 | 179 | 0.0 | 1.6 | 0.00 | 0.00 | 0.00 | 96 | 1046.0 |
| 20260906075949 | 20 | 179 | 0.0 | 0.0 | 0.00 | 0.00 | 0.00 | 96 | 1046.0 |
| 20260906075444 | 20 | 179 | 0.0 | 0.0 | 0.00 | 0.00 | 0.00 | 95 | 1046.1 |
| 20260906074939 | 21 | 179 | 0.0 | 0.0 | 0.00 | 0.00 | 0.00 | 95 | 1046.2 |
| 20260906074438 | 21 | 179 | 0.0 | 0.0 | 0.00 | 0.00 | 0.00 | 95 | 1046.0 |
| 20260906073937 | 21 | 179 | 0.0 | 0.0 | 0.00 | 0.00 | 0.00 | 95 | 1045.5 |
| 20260906073432 | 21 | 179 | 0.0 | 0.0 | 0.00 | 0.00 | 0.00 | 94 | 1045.6 |
| 20260906072929 | 21 | 179 | 0.0 | 0.0 | 0.00 | 0.00 | 0.00 | 94 | 1045.9 |
| 20260906072424 | 21 | 179 | 0.0 | 0.0 | 0.00 | 0.00 | 0.00 | 94 | 1045.5 |
| 20260906071919 | 21 | 179 | 0.0 | 0.0 | 0.00 | 0.00 | 0.00 | 94 | 1046.0 |
| 20260906071415 | 21 | 179 | 0.0 | 0.0 | 0.00 | 0.00 | 0.00 | 93 | 1046.3 |
| 20260906070911 | 21 | 179 | 0.0 | 1.6 | 0.00 | 0.00 | 0.00 | 93 | 1046.3 |
| 20260906070407 | 21 | 179 | 1.6 | 1.6 | 0.00 | 0.00 | 0.00 | 93 | 1046.4 |
| 20260906065903 | 21 | 179 | 0.0 | 0.0 | 0.00 | 0.00 | 0.00 | 93 | 1046.5 |
| 20260906065356 | 21 | 179 | 0.0 | 1.6 | 0.00 | 0.00 | 0.00 | 94 | 1046.5 |
| 20260906064852 | 21 | 185 | 0.0 | 0.0 | 0.00 | 0.00 | 0.00 | 93 | 1046.3 |
| 20260906064348 | 21 | 185 | 1.6 | 1.6 | 0.00 | 0.00 | 0.00 | 93 | 1046.4 |
| 20260906063848 | 21 | 185 | 0.0 | 0.0 | 0.00 | 0.00 | 0.00 | 94 | 1046.3 |
| 20260906063344 | 21 | 184 | 0.0 | 0.0 | 0.00 | 0.00 | 0.00 | 93 | 1046.3 |
| 20260906062839 | 21 | 184 | 0.0 | 0.0 | 0.00 | 0.00 | 0.00 | 93 | 1045.9 |
| 20260906062338 | 21 | 184 | 0.0 | 0.0 | 0.00 | 0.00 | 0.00 | 93 | 1046.4 |
| 20260906061833 | 22 | 185 | 0.0 | 0.0 | 0.00 | 0.00 | 0.00 | 92 | 1046.5 |
| 20260906061330 | 22 | 185 | 0.0 | 0.0 | 0.00 | 0.00 | 0.00 | 91 | 1046.3 |
| 20260906060824 | 22 | 184 | 0.0 | 1.6 | 0.00 | 0.00 | 0.00 | 91 | 1046.3 |
| 20260906060322 | 22 | 184 | 0.0 | 0.0 | 0.00 | 0.00 | 0.00 | 91 | 1046.4 |
| 20260906055818 | 22 | 184 | 0.0 | 0.0 | 0.00 | 0.00 | 0.00 | 90 | 1046.6 |
| 20260906055313 | 22 | 185 | 0.0 | 1.6 | 0.00 | 0.00 | 0.00 | 89 | 1046.4 |
| 20260906054808 | 22 | 185 | 1.6 | 1.6 | 0.00 | 0.00 | 0.00 | 91 | 1046.8 |
| 20260906054304 | 22 | 186 | 0.0 | 0.0 | 0.00 | 0.00 | 0.00 | 92 | 1046.7 |
| 20260906053800 | 22 | 186 | 0.0 | 0.0 | 0.00 | 0.00 | 0.00 | 92 | 1046.9 |
| 20260906053255 | 22 | 185 | 0.0 | 0.0 | 0.00 | 0.00 | 0.00 | 92 | 1046.7 |
| 20260906052750 | 22 | 193 | 0.0 | 1.6 | 0.00 | 0.00 | 0.00 | 92 | 1046.7 |
| 20260906052246 | 22 | 185 | 1.6 | 1.6 | 0.00 | 0.00 | 0.00 | 91 | 1046.7 |
| 20260906051743 | 22 | 148 | 0.0 | 0.0 | 0.00 | 0.00 | 0.00 | 92 | 1046.3 |
| 20260906051243 | 22 | 148 | 0.0 | 0.0 | 0.00 | 0.00 | 0.00 | 92 | 1046.7 |
| 20260906050738 | 22 | 148 | 0.0 | 0.0 | 0.00 | 0.00 | 0.00 | 92 | 1046.7 |
| 20260906050233 | 22 | 148 | 0.0 | 0.0 | 0.00 | 0.00 | 0.00 | 92 | 1046.5 |
| 20260906045732 | 22 | 148 | 0.0 | 0.0 | 0.00 | 0.00 | 0.00 | 91 | 1046.8 |
| 20260906045227 | 22 | 148 | 0.0 | 0.0 | 0.00 | 0.00 | 0.00 | 91 | 1046.8 |
| 20260906044723 | 22 | 148 | 0.0 | 0.0 | 0.00 | 0.00 | 0.00 | 90 | 1046.5 |
| 20260906044218 | 22 | 148 | 0.0 | 0.0 | 0.00 | 0.00 | 0.00 | 90 | 1045.9 |
| 20260906043714 | 22 | 148 | 0.0 | 0.0 | 0.00 | 0.00 | 0.00 | 89 | 1046.6 |
| 20260906043210 | 22 | 148 | 0.0 | 0.0 | 0.00 | 0.00 | 0.00 | 88 | 1046.4 |
| 20260906042709 | 22 | 148 | 0.0 | 1.6 | 0.00 | 0.00 | 0.00 | 88 | 1046.7 |
| 20260906042203 | 22 | 148 | 0.0 | 0.0 | 0.00 | 0.00 | 0.00 | 89 | 1046.6 |
| 20260906041658 | 22 | 149 | 1.6 | 1.6 | 0.00 | 0.00 | 0.00 | 89 | 1046.5 |
| 20260906041153 | 22 | 148 | 3.2 | 3.2 | 0.00 | 0.00 | 0.00 | 89 | 1046.5 |
| 20260906040649 | 22 | 60 | 0.0 | 1.6 | 0.00 | 0.00 | 0.00 | 88 | 1046.2 |
| 20260906040144 | 22 | 60 | 0.0 | 0.0 | 0.00 | 0.00 | 0.00 | 88 | 1046.6 |
| 20260906035639 | 22 | 60 | 0.0 | 0.0 | 0.00 | 0.56 | 0.56 | 88 | 1046.3 |
| 20260906035135 | 22 | 60 | 0.0 | 0.0 | 0.00 | 0.56 | 0.56 | 89 | 1046.4 |
| 20260906034630 | 23 | 60 | 0.0 | 0.0 | 0.00 | 0.56 | 0.56 | 88 | 1046.2 |
| 20260906034129 | 23 | 60 | 0.0 | 0.0 | 0.00 | 0.56 | 0.56 | 87 | 1045.8 |
| 20260906033625 | 23 | 60 | 0.0 | 0.0 | 0.00 | 0.56 | 0.56 | 87 | 1046.1 |
| 20260906033120 | 23 | 61 | 1.6 | 1.6 | 0.00 | 0.56 | 0.56 | 86 | 1045.8 |
| 20260906032617 | 23 | 60 | 0.0 | 1.6 | 0.00 | 0.56 | 0.56 | 86 | 1046.1 |
| 20260906032116 | 23 | 60 | 0.0 | 0.0 | 0.00 | 0.56 | 0.56 | 85 | 1046.2 |
| 20260906031612 | 23 | 60 | 0.0 | 0.0 | 0.00 | 0.56 | 0.56 | 85 | 1046.1 |
| 20260906031107 | 23 | 60 | 0.0 | 0.0 | 0.00 | 0.56 | 0.56 | 84 | 1046.1 |
| 20260906030606 | 24 | 60 | 1.6 | 1.6 | 0.00 | 0.56 | 0.56 | 84 | 1046.1 |
| 20260906025601 | 24 | 60 | 0.0 | 1.6 | 0.00 | 0.56 | 0.56 | 81 | 1046.2 |
| 20260906025100 | 24 | 11 | 1.6 | 3.2 | 0.00 | 0.56 | 0.56 | 80 | 1046.4 |
| 20260906024555 | 24 | 223 | 0.0 | 3.2 | 0.00 | 0.56 | 0.56 | 80 | 1046.1 |
| 20260906024055 | 23 | 354 | 4.8 | 9.7 | 0.00 | 0.56 | 0.56 | 86 | 1046.6 |
| 20260906023552 | 23 | 11 | 0.0 | 0.0 | 0.00 | 0.56 | 0.56 | 86 | 1046.2 |
| 20260906023051 | 23 | 11 | 0.0 | 0.0 | 0.00 | 0.56 | 0.56 | 85 | 1046.1 |
| 20260906022547 | 24 | 11 | 0.0 | 0.0 | 0.00 | 0.56 | 0.56 | 84 | 1045.9 |
| 20260906022042 | 24 | 11 | 0.0 | 0.0 | 0.00 | 0.56 | 0.56 | 83 | 1046.0 |
| 20260906021538 | 24 | 11 | 0.0 | 1.6 | 0.00 | 0.56 | 0.56 | 84 | 1045.8 |
| 20260906021037 | 24 | 10 | 0.0 | 0.0 | 0.00 | 0.56 | 0.56 | 84 | 1045.9 |
| 20260906020537 | 24 | 10 | 0.0 | 0.0 | 0.00 | 0.56 | 0.56 | 84 | 1045.9 |
| 20260906020036 | 24 | 10 | 0.0 | 0.0 | 0.00 | 0.56 | 0.56 | 83 | 1045.3 |
| 20260906015535 | 25 | 10 | 0.0 | 0.0 | 0.00 | 0.56 | 0.56 | 84 | 1045.6 |
| 20260906015029 | 25 | 10 | 0.0 | 0.0 | 0.00 | 0.56 | 0.56 | 83 | 1045.6 |
| 20260906014524 | 25 | 10 | 0.0 | 0.0 | 0.00 | 0.56 | 0.56 | 83 | 1045.5 |
| 20260906014020 | 25 | 10 | 0.0 | 0.0 | 0.00 | 0.56 | 0.56 | 84 | 1045.6 |
| 20260906013515 | 25 | 10 | 0.0 | 0.0 | 0.00 | 0.56 | 0.56 | 85 | 1045.6 |
| 20260906013011 | 25 | 9 | 0.0 | 0.0 | 0.00 | 0.56 | 0.56 | 85 | 1045.6 |
| 20260906012506 | 26 | 9 | 0.0 | 1.6 | 0.00 | 0.56 | 0.56 | 83 | 1045.5 |
| 20260906012005 | 26 | 9 | 1.6 | 1.6 | 0.00 | 0.56 | 0.56 | 82 | 1045.3 |
| 20260906011501 | 26 | 9 | 0.0 | 0.0 | 0.00 | 0.56 | 0.56 | 85 | 1045.4 |
| 20260906010956 | 26 | 9 | 1.6 | 1.6 | 0.00 | 0.56 | 0.56 | 84 | 1045.2 |
| 20260906010452 | 26 | 9 | 0.0 | 0.0 | 0.00 | 0.56 | 0.56 | 83 | 1045.2 |
| 20260906005948 | 26 | 51 | 1.6 | 1.6 | 0.00 | 0.56 | 0.56 | 82 | 1045.2 |
| 20260906005447 | 26 | 51 | 0.0 | 1.6 | 0.00 | 0.56 | 0.56 | 82 | 1045.1 |
| 20260906004946 | 26 | 51 | 1.6 | 1.6 | 0.00 | 0.56 | 0.56 | 84 | 1045.0 |
| 20260906004445 | 26 | 51 | 0.0 | 0.0 | 0.00 | 0.56 | 0.56 | 84 | 1045.0 |
| 20260906003941 | 26 | 51 | 0.0 | 0.0 | 0.00 | 0.56 | 0.56 | 83 | 1044.9 |
| 20260906003441 | 26 | 51 | 0.0 | 0.0 | 0.00 | 0.56 | 0.56 | 81 | 1044.6 |
| 20260906002936 | 27 | 51 | 0.0 | 0.0 | 0.00 | 0.56 | 0.56 | 79 | 1044.8 |
| 20260906002431 | 27 | 51 | 0.0 | 0.0 | 0.00 | 0.56 | 0.56 | 78 | 1044.9 |
| 20260906001926 | 27 | 51 | 1.6 | 1.6 | 0.00 | 0.56 | 0.56 | 77 | 1045.0 |
| 20260906001421 | 27 | 15 | 0.0 | 0.0 | 0.00 | 0.56 | 0.56 | 79 | 1045.2 |
| 20260906000917 | 27 | 14 | 0.0 | 0.0 | 0.00 | 0.56 | 0.56 | 78 | 1044.9 |
| 20260906000412 | 28 | 14 | 0.0 | 0.0 | 0.00 | 0.56 | 0.56 | 76 | 1045.0 |
| 20260905235907 | 28 | 14 | 0.0 | 0.0 | 0.00 | 0.56 | 0.56 | 75 | 1045.3 |
| 20260905235401 | 28 | 14 | 0.0 | 0.0 | 0.00 | 0.56 | 0.56 | 76 | 1045.3 |
| 20260905234856 | 28 | 16 | 0.0 | 0.0 | 0.00 | 0.56 | 0.56 | 72 | 1045.4 |
| 20260905234352 | 28 | 17 | 0.0 | 0.0 | 0.00 | 0.56 | 0.56 | 74 | 1045.5 |
| 20260905233847 | 29 | 17 | 0.0 | 0.0 | 0.00 | 0.56 | 0.56 | 73 | 1045.5 |
| 20260905233342 | 29 | 17 | 0.0 | 1.6 | 0.00 | 0.56 | 0.56 | 67 | 1045.5 |
| 20260905232841 | 30 | 17 | 0.0 | 0.0 | 0.00 | 0.56 | 0.56 | 69 | 1045.2 |
| 20260905232337 | 30 | 17 | 0.0 | 0.0 | 0.00 | 0.56 | 0.56 | 68 | 1045.1 |
| 20260905231833 | 30 | 17 | 1.6 | 1.6 | 0.00 | 0.56 | 0.56 | 64 | 1045.7 |
| 20260905231332 | 30 | 17 | 1.6 | 1.6 | 0.00 | 0.56 | 0.56 | 66 | 1045.6 |
| 20260905230829 | 31 | 17 | 1.6 | 1.6 | 0.00 | 0.56 | 0.56 | 63 | 1045.7 |
| 20260905230327 | 31 | 17 | 1.6 | 1.6 | 0.00 | 0.56 | 0.56 | 61 | 1045.6 |
| 20260905225826 | 32 | 337 | 0.0 | 0.0 | 0.00 | 0.56 | 0.56 | 58 | 1045.1 |
| 20260905225322 | 32 | 336 | 0.0 | 0.0 | 0.00 | 0.56 | 0.56 | 60 | 1045.7 |
| 20260905224821 | 32 | 336 | 0.0 | 0.0 | 0.00 | 0.56 | 0.56 | 60 | 1045.4 |
| 20260905224317 | 33 | 336 | 1.6 | 1.6 | 0.00 | 0.56 | 0.56 | 54 | 1045.4 |
| 20260905223812 | 32 | 336 | 0.0 | 0.0 | 0.00 | 0.56 | 0.56 | 55 | 1045.5 |
| 20260905223310 | 32 | 336 | 1.6 | 1.6 | 0.00 | 0.56 | 0.56 | 55 | 1045.0 |
| 20260905222805 | 33 | 324 | 3.2 | 4.8 | 0.00 | 0.56 | 0.56 | 55 | 1045.6 |
| 20260905222306 | 33 | 337 | 1.6 | 4.8 | 0.00 | 0.56 | 0.56 | 54 | 1045.5 |
| 20260905221800 | 33 | 350 | 3.2 | 4.8 | 0.00 | 0.56 | 0.56 | 52 | 1045.8 |
| 20260905221256 | 33 | 49 | 1.6 | 6.4 | 0.00 | 0.56 | 0.56 | 50 | 1045.5 |
| 20260905220752 | 33 | 352 | 0.0 | 3.2 | 0.00 | 0.56 | 0.56 | 53 | 1045.5 |
| 20260905220248 | 33 | 343 | 4.8 | 6.4 | 0.00 | 0.56 | 0.56 | 50 | 1045.6 |
| 20260905215747 | 33 | 349 | 3.2 | 6.4 | 0.00 | 0.56 | 0.56 | 51 | 1045.3 |
| 20260905215243 | 33 | 9 | 6.4 | 6.4 | 0.00 | 0.56 | 0.56 | 51 | 1045.5 |
| 20260905214738 | 33 | 336 | 3.2 | 9.7 | 0.00 | 0.56 | 0.56 | 51 | 1045.7 |
| 20260905214234 | 33 | 349 | 4.8 | 4.8 | 0.00 | 0.56 | 0.56 | 51 | 1045.4 |
| 20260905213729 | 33 | 341 | 6.4 | 9.7 | 0.00 | 0.56 | 0.56 | 51 | 1045.4 |
| 20260905213226 | 34 | 308 | 6.4 | 9.7 | 0.00 | 0.56 | 0.56 | 50 | 1045.3 |
| 20260905212720 | 34 | 344 | 6.4 | 6.4 | 0.00 | 0.56 | 0.56 | 47 | 1044.7 |
| 20260905212220 | 34 | 279 | 0.0 | 4.8 | 0.00 | 0.56 | 0.56 | 48 | 1045.1 |
| 20260905211719 | 34 | 295 | 8.0 | 6.4 | 0.00 | 0.56 | 0.56 | 48 | 1045.2 |
| 20260905211214 | 34 | 307 | 6.4 | 9.7 | 0.00 | 0.56 | 0.56 | 48 | 1045.2 |
| 20260905210712 | 34 | 269 | 3.2 | 6.4 | 0.00 | 0.56 | 0.56 | 48 | 1045.3 |
| 20260905210212 | 34 | 300 | 4.8 | 4.8 | 0.00 | 0.56 | 0.56 | 47 | 1045.4 |
| 20260905205710 | 34 | 2 | 3.2 | 4.8 | 0.00 | 0.56 | 0.56 | 47 | 1045.4 |
| 20260905205205 | 34 | 295 | 1.6 | 6.4 | 0.00 | 0.56 | 0.56 | 47 | 1045.4 |
| 20260905204704 | 33 | 316 | 3.2 | 4.8 | 0.00 | 0.56 | 0.56 | 49 | 1045.3 |
| 20260905204159 | 33 | 330 | 3.2 | 9.7 | 0.00 | 0.56 | 0.56 | 50 | 1045.5 |
| 20260905203654 | 33 | 330 | 6.4 | 6.4 | 0.00 | 0.56 | 0.56 | 50 | 1045.3 |
| 20260905203150 | 33 | 12 | 1.6 | 4.8 | 0.00 | 0.56 | 0.56 | 47 | 1045.2 |
| 20260905202645 | 34 | 358 | 4.8 | 9.7 | 0.00 | 0.56 | 0.56 | 48 | 1045.5 |
| 20260905202140 | 34 | 316 | 3.2 | 4.8 | 0.00 | 0.56 | 0.56 | 46 | 1045.5 |
| 20260905201636 | 34 | 319 | 6.4 | 9.7 | 0.00 | 0.56 | 0.56 | 46 | 1045.8 |
| 20260905201135 | 34 | 289 | 1.6 | 11.3 | 0.00 | 0.56 | 0.56 | 50 | 1045.6 |
| 20260905200632 | 33 | 323 | 1.6 | 3.2 | 0.00 | 0.56 | 0.56 | 47 | 1046.0 |
| 20260905200127 | 33 | 317 | 4.8 | 4.8 | 0.00 | 0.56 | 0.56 | 49 | 1046.1 |
| 20260905195625 | 33 | 349 | 4.8 | 4.8 | 0.00 | 0.56 | 0.56 | 46 | 1046.1 |
| 20260905195120 | 33 | 333 | 1.6 | 9.7 | 0.00 | 0.56 | 0.56 | 47 | 1046.0 |
| 20260905194620 | 34 | 332 | 6.4 | 6.4 | 0.00 | 0.56 | 0.56 | 45 | 1046.0 |
| 20260905194119 | 33 | 333 | 1.6 | 4.8 | 0.00 | 0.56 | 0.56 | 49 | 1046.2 |
| 20260905193614 | 33 | 341 | 3.2 | 9.7 | 0.00 | 0.56 | 0.56 | 47 | 1046.3 |
| 20260905193109 | 33 | 346 | 3.2 | 3.2 | 0.00 | 0.56 | 0.56 | 44 | 1045.9 |
| 20260905192605 | 34 | 319 | 4.8 | 4.8 | 0.00 | 0.56 | 0.56 | 47 | 1046.2 |
| 20260905192101 | 34 | 306 | 4.8 | 6.4 | 0.00 | 0.56 | 0.56 | 47 | 1046.5 |
| 20260905191559 | 33 | 256 | 4.8 | 4.8 | 0.00 | 0.56 | 0.56 | 46 | 1046.6 |
| 20260905191059 | 33 | 226 | 4.8 | 9.7 | 0.00 | 0.56 | 0.56 | 47 | 1046.4 |
| 20260905190557 | 33 | 231 | 4.8 | 9.7 | 0.00 | 0.56 | 0.56 | 48 | 1046.6 |
| 20260905190057 | 33 | 284 | 6.4 | 6.4 | 0.00 | 0.56 | 0.56 | 46 | 1046.7 |
| 20260905185556 | 33 | 184 | 4.8 | 11.3 | 0.00 | 0.56 | 0.56 | 47 | 1046.8 |
| 20260905185056 | 33 | 224 | 1.6 | 4.8 | 0.00 | 0.56 | 0.56 | 48 | 1046.9 |
| 20260905184550 | 33 | 333 | 4.8 | 4.8 | 0.00 | 0.56 | 0.56 | 49 | 1046.9 |
| 20260905184050 | 33 | 75 | 1.6 | 3.2 | 0.00 | 0.56 | 0.56 | 45 | 1046.9 |
| 20260905183549 | 33 | 272 | 1.6 | 4.8 | 0.00 | 0.56 | 0.56 | 48 | 1046.9 |
| 20260905183044 | 32 | 297 | 3.2 | 4.8 | 0.00 | 0.56 | 0.56 | 47 | 1047.2 |
| 20260905182544 | 32 | 228 | 4.8 | 9.7 | 0.00 | 0.56 | 0.56 | 48 | 1047.1 |
| 20260905182038 | 32 | 189 | 3.2 | 6.4 | 0.00 | 0.56 | 0.56 | 47 | 1047.4 |
| 20260905181533 | 33 | 262 | 3.2 | 4.8 | 0.00 | 0.56 | 0.56 | 47 | 1047.4 |
| 20260905181032 | 32 | 218 | 3.2 | 3.2 | 0.00 | 0.56 | 0.56 | 52 | 1047.1 |
| 20260905180527 | 32 | 285 | 1.6 | 3.2 | 0.00 | 0.56 | 0.56 | 51 | 1047.6 |
| 20260905180023 | 32 | 247 | 3.2 | 4.8 | 0.00 | 0.56 | 0.56 | 49 | 1047.7 |
| 20260905175521 | 32 | 172 | 3.2 | 6.4 | 0.00 | 0.56 | 0.56 | 48 | 1046.9 |
| 20260905175017 | 32 | 74 | 1.6 | 1.6 | 0.00 | 0.56 | 0.56 | 49 | 1047.7 |
| 20260905174513 | 31 | 143 | 0.0 | 4.8 | 0.00 | 0.56 | 0.56 | 56 | 1047.7 |
| 20260905174008 | 32 | 184 | 4.8 | 6.4 | 0.00 | 0.56 | 0.56 | 50 | 1047.6 |
| 20260905173504 | 32 | 152 | 4.8 | 4.8 | 0.00 | 0.56 | 0.56 | 49 | 1047.4 |
| 20260905172959 | 31 | 210 | 3.2 | 4.8 | 0.00 | 0.56 | 0.56 | 52 | 1047.4 |
| 20260905172458 | 31 | 120 | 8.0 | 11.3 | 0.00 | 0.56 | 0.56 | 50 | 1047.8 |
| 20260905171953 | 31 | 171 | 3.2 | 9.7 | 0.00 | 0.56 | 0.56 | 50 | 1047.8 |
| 20260905171450 | 31 | 187 | 8.0 | 11.3 | 0.00 | 0.56 | 0.56 | 51 | 1048.1 |
| 20260905170946 | 31 | 195 | 6.4 | 9.7 | 0.00 | 0.56 | 0.56 | 53 | 1047.9 |
| 20260905170442 | 31 | 198 | 1.6 | 6.4 | 0.00 | 0.56 | 0.56 | 53 | 1047.8 |
| 20260905165941 | 31 | 207 | 3.2 | 9.7 | 0.00 | 0.56 | 0.56 | 52 | 1048.2 |
| 20260905165436 | 31 | 193 | 4.8 | 4.8 | 0.00 | 0.56 | 0.56 | 54 | 1048.3 |
| 20260905164932 | 31 | 181 | 3.2 | 6.4 | 0.00 | 0.56 | 0.56 | 55 | 1048.4 |
| 20260905164426 | 30 | 200 | 3.2 | 4.8 | 0.00 | 0.56 | 0.56 | 55 | 1048.1 |
| 20260905163921 | 30 | 162 | 1.6 | 9.7 | 0.00 | 0.56 | 0.56 | 55 | 1048.2 |
| 20260905163418 | 30 | 207 | 6.4 | 6.4 | 0.00 | 0.56 | 0.56 | 55 | 1048.1 |
| 20260905162914 | 31 | 210 | 9.7 | 12.9 | 0.00 | 0.56 | 0.56 | 52 | 1048.2 |
| 20260905162414 | 30 | 204 | 3.2 | 4.8 | 0.00 | 0.56 | 0.56 | 55 | 1048.3 |
| 20260905161909 | 30 | 207 | 4.8 | 4.8 | 0.00 | 0.56 | 0.56 | 57 | 1048.3 |
| 20260905161408 | 30 | 203 | 4.8 | 6.4 | 0.00 | 0.56 | 0.56 | 57 | 1048.1 |
| 20260905160906 | 30 | 192 | 1.6 | 6.4 | 0.00 | 0.56 | 0.56 | 55 | 1048.1 |
| 20260905160401 | 30 | 183 | 3.2 | 11.3 | 0.00 | 0.56 | 0.56 | 60 | 1048.4 |
| 20260905155855 | 29 | 194 | 3.2 | 9.7 | 0.00 | 0.56 | 0.56 | 61 | 1048.5 |
| 20260905155355 | 29 | 138 | 3.2 | 6.4 | 0.00 | 0.56 | 0.56 | 59 | 1048.2 |
| 20260905154853 | 29 | 198 | 3.2 | 4.8 | 0.00 | 0.56 | 0.56 | 60 | 1048.4 |
| 20260905154349 | 28 | 150 | 6.4 | 6.4 | 0.00 | 0.56 | 0.56 | 61 | 1048.4 |
| 20260905153844 | 29 | 200 | 6.4 | 11.3 | 0.00 | 0.56 | 0.56 | 61 | 1048.5 |
| 20260905153341 | 29 | 136 | 4.8 | 9.7 | 0.00 | 0.56 | 0.56 | 61 | 1048.5 |
| 20260905152840 | 28 | 177 | 1.6 | 3.2 | 0.00 | 0.56 | 0.56 | 62 | 1048.5 |
| 20260905152340 | 28 | 223 | 4.8 | 9.7 | 0.00 | 0.56 | 0.56 | 63 | 1048.5 |
| 20260905151835 | 28 | 234 | 1.6 | 3.2 | 0.00 | 0.56 | 0.56 | 63 | 1048.8 |
| 20260905151331 | 27 | 171 | 0.0 | 9.7 | 0.00 | 0.56 | 0.56 | 64 | 1048.8 |
| 20260905150830 | 27 | 213 | 6.4 | 9.7 | 0.00 | 0.56 | 0.56 | 62 | 1049.0 |
| 20260905150325 | 28 | 217 | 4.8 | 6.4 | 0.00 | 0.56 | 0.56 | 64 | 1048.7 |
| 20260905145822 | 28 | 210 | 3.2 | 4.8 | 0.00 | 0.56 | 0.56 | 62 | 1048.9 |
| 20260905145322 | 28 | 214 | 1.6 | 4.8 | 0.00 | 0.56 | 0.56 | 60 | 1049.0 |
| 20260905144821 | 28 | 228 | 1.6 | 3.2 | 0.00 | 0.56 | 0.56 | 63 | 1048.7 |
| 20260905144317 | 27 | 26 | 0.0 | 1.6 | 0.00 | 0.56 | 0.56 | 64 | 1048.9 |
| 20260905143816 | 27 | 207 | 3.2 | 9.7 | 0.00 | 0.56 | 0.56 | 67 | 1048.8 |
| 20260905143310 | 27 | 245 | 3.2 | 3.2 | 0.00 | 0.56 | 0.56 | 67 | 1048.9 |
| 20260905142809 | 27 | 29 | 1.6 | 3.2 | 0.00 | 0.56 | 0.56 | 66 | 1049.0 |
| 20260905142305 | 27 | 106 | 1.6 | 3.2 | 0.00 | 0.56 | 0.56 | 66 | 1048.9 |
| 20260905141800 | 26 | 55 | 1.6 | 1.6 | 0.00 | 0.56 | 0.56 | 70 | 1049.2 |
| 20260905141255 | 25 | 45 | 6.4 | 6.4 | 0.00 | 0.56 | 0.56 | 71 | 1049.2 |
| 20260905140751 | 25 | 354 | 3.2 | 6.4 | 0.00 | 0.56 | 0.56 | 74 | 1049.2 |
| 20260905140250 | 25 | 187 | 4.8 | 4.8 | 0.00 | 0.56 | 0.56 | 74 | 1049.2 |
| 20260905135749 | 25 | 179 | 3.2 | 9.7 | 0.00 | 0.56 | 0.56 | 75 | 1049.2 |
| 20260905135245 | 25 | 283 | 0.0 | 6.4 | 0.00 | 0.56 | 0.56 | 79 | 1049.2 |
| 20260905134745 | 25 | 126 | 0.0 | 4.8 | 0.00 | 0.56 | 0.56 | 79 | 1049.2 |
| 20260905134245 | 24 | 156 | 0.0 | 4.8 | 0.00 | 0.56 | 0.56 | 84 | 1049.3 |
| 20260905133739 | 23 | 219 | 3.2 | 3.2 | 0.00 | 0.56 | 0.56 | 84 | 1049.5 |
| 20260905133235 | 23 | 175 | 1.6 | 3.2 | 0.00 | 0.56 | 0.56 | 86 | 1049.6 |
| 20260905132733 | 22 | 210 | 1.6 | 3.2 | 0.00 | 0.56 | 0.56 | 87 | 1049.6 |
| 20260905132229 | 22 | 114 | 3.2 | 3.2 | 0.00 | 0.56 | 0.56 | 87 | 1049.8 |
| 20260905131724 | 22 | 276 | 1.6 | 3.2 | 0.00 | 0.56 | 0.56 | 88 | 1049.7 |
| 20260905131220 | 22 | 51 | 0.0 | 9.7 | 0.00 | 0.56 | 0.56 | 90 | 1049.5 |
| 20260905130720 | 22 | 351 | 1.6 | 4.8 | 0.00 | 0.56 | 0.56 | 90 | 1049.6 |
| 20260905130219 | 22 | 326 | 4.8 | 4.8 | 0.00 | 0.56 | 0.56 | 90 | 1049.7 |
| 20260905125714 | 21 | 328 | 3.2 | 4.8 | 0.00 | 0.56 | 0.56 | 90 | 1050.0 |
| 20260905125209 | 21 | 66 | 6.4 | 11.3 | 0.00 | 0.56 | 0.56 | 90 | 1049.8 |
| 20260905124706 | 21 | 339 | 3.2 | 6.4 | 0.00 | 0.56 | 0.56 | 90 | 1049.8 |
| 20260905124202 | 21 | 9 | 4.8 | 6.4 | 0.00 | 0.56 | 0.56 | 89 | 1050.0 |
| 20260905123702 | 21 | 8 | 8.0 | 11.3 | 0.00 | 0.56 | 0.56 | 89 | 1050.2 |
| 20260905123200 | 21 | 12 | 8.0 | 11.3 | 0.00 | 0.56 | 0.56 | 88 | 1049.8 |
| 20260905122659 | 21 | 0 | 11.3 | 16.1 | 0.00 | 0.56 | 0.56 | 89 | 1049.6 |
| 20260905122154 | 21 | 351 | 6.4 | 9.7 | 0.00 | 0.56 | 0.56 | 92 | 1049.8 |
| 20260905121654 | 21 | 189 | 0.0 | 3.2 | 0.00 | 0.56 | 0.56 | 92 | 1049.3 |
| 20260905121150 | 21 | 176 | 0.0 | 1.6 | 0.00 | 0.56 | 0.56 | 90 | 1048.8 |
| 20260905120648 | 21 | 215 | 1.6 | 3.2 | 0.00 | 0.56 | 0.56 | 90 | 1049.0 |
| 20260905120144 | 22 | 352 | 0.0 | 1.6 | 0.00 | 0.56 | 0.56 | 90 | 1049.2 |
| 20260905115643 | 22 | 294 | 1.6 | 3.2 | 0.00 | 0.56 | 0.56 | 89 | 1049.1 |
| 20260905115138 | 22 | 109 | 3.2 | 9.7 | 0.00 | 0.56 | 0.56 | 88 | 1048.9 |
| 20260905114638 | 22 | 65 | 8.0 | 14.5 | 0.00 | 0.56 | 0.56 | 88 | 1049.3 |
| 20260905114136 | 21 | 27 | 3.2 | 6.4 | 0.00 | 0.56 | 0.56 | 94 | 1049.3 |